Weather History for Moses Lake, WA

Change the Weather History Date:

Wednesday, January 23, 2013

  Actual Average Record
Temperature  
Mean Temperature 24 °F 31 °F  
Max Temperature 27 °F 37 °F 51 °F (2011)
Min Temperature 21 °F 25 °F -4 °F (2008)
Degree Days  
Heating Degree Days 41 34  
Month to date heating degree days 884 820  
Since 1 July heating degree days 3092 3407  
Cooling Degree Days 0 0  
Month to date cooling degree days 0 0  
Year to date cooling degree days 0 0  
Moisture  
Dew Point 19 °F    
Average Humidity 83    
Maximum Humidity 92    
Minimum Humidity 74    
Precipitation  
Precipitation T in 0.02 in 0.59 in (2003)
Month to date precipitation 0.27 0.95  
Year to date precipitation 0.27 0.95  
Sea Level Pressure  
Sea Level Pressure 30.11 in    
Wind  
Wind Speed 3 mph (SW)    
Max Wind Speed 10 mph    
Max Gust Speed 12 mph    
Visibility 8 miles    
Events Rain    
T = Trace of Precipitation, MM = Missing Value Source: NWS Daily Summary

Daily Weather History Graph

Daily Weather History Graph

Search for Another Location

Airport:

Trip Planner

Search our weather history database for the weather conditions in past years. The results will help you decide how hot, cold, wet, or windy it might be!

Date:

Astronomy

Jan. 23, 2013 Rise Set
Actual Time 7:32 AM PST 4:46 PM PST
Civil Twilight 6:58 AM PST 5:20 PM PST
Nautical Twilight 6:21 AM PST 5:57 PM PST
Astronomical Twilight 5:45 AM PST 6:33 PM PST
Moon 1:57 PM PST (1/23) 4:51 AM PST (1/23)
Length of Visible Light 10h 21m
Length of Day
9h 13m
Waxing Gibbous, 90% of the Moon is Illuminated
Jan 23
Waxing Gibbous
Jan 26
Full
Feb 3
Last Quarter
Feb 9
New
Feb 17
First Quarter

Hourly Weather History & Observations

Time (PST) Temp. Windchill Dew Point Humidity Pressure Visibility Wind Dir Wind Speed Gust Speed Precip Events Conditions
12:52 AM 23.0 °F - 17.1 °F 78% 30.23 in 10.0 mi Calm Calm - N/A   Overcast
1:52 AM 23.0 °F - 17.1 °F 78% 30.24 in 10.0 mi Calm Calm - N/A   Overcast
2:52 AM 23.0 °F 18.4 °F 17.1 °F 78% 30.24 in 10.0 mi WNW 3.5 mph - N/A   Overcast
3:52 AM 21.9 °F 17.2 °F 17.1 °F 82% 30.20 in 10.0 mi NNW 3.5 mph - N/A   Overcast
4:52 AM 21.9 °F - 17.1 °F 82% 30.19 in 10.0 mi Calm Calm - N/A   Overcast
5:52 AM 21.9 °F - 17.1 °F 82% 30.19 in 9.0 mi Calm Calm - N/A   Overcast
6:52 AM 21.9 °F - 18.0 °F 85% 30.16 in 8.0 mi Calm Calm - N/A   Mostly Cloudy
7:00 AM 21.2 °F - 17.6 °F 86% 30.10 in 9.0 mi Calm Calm - N/A   Scattered Clouds
7:09 AM 23.0 °F - 17.6 °F 80% 30.10 in 9.0 mi Calm Calm - N/A   Partly Cloudy
7:52 AM 21.9 °F - 18.0 °F 85% 30.17 in 7.0 mi Calm Calm - N/A   Clear
8:52 AM 24.1 °F - 18.0 °F 77% 30.15 in 7.0 mi Calm Calm - N/A   Clear
9:52 AM 24.1 °F - 19.0 °F 81% 30.12 in 7.0 mi Calm Calm - N/A   Partly Cloudy
10:52 AM 25.0 °F 18.1 °F 19.0 °F 78% 30.14 in 7.0 mi SW 5.8 mph - N/A   Overcast
11:52 AM 25.0 °F - 19.0 °F 78% 30.09 in 8.0 mi Calm Calm - N/A   Overcast
12:52 PM 26.1 °F - 19.0 °F 75% 30.06 in 8.0 mi Calm Calm - N/A   Overcast
1:11 PM 26.6 °F 22.6 °F 19.4 °F 74% 30.01 in 5.0 mi West 3.5 mph - N/A Rain Light Freezing Rain
1:38 PM 26.6 °F - 21.2 °F 80% 30.01 in 7.0 mi Calm Calm - N/A   Overcast
1:52 PM 26.1 °F - 19.9 °F 78% 30.06 in 7.0 mi Calm Calm - 0.00 in   Overcast
2:52 PM 27.0 °F - 21.0 °F 78% 30.02 in 6.0 mi Calm Calm - 0.00 in   Haze
3:52 PM 27.0 °F 18.7 °F 21.0 °F 78% 30.04 in 7.0 mi WSW 8.1 mph - N/A   Overcast
4:52 PM 27.0 °F 19.5 °F 21.0 °F 78% 30.04 in 8.0 mi SW 6.9 mph - N/A   Overcast
5:52 PM 27.0 °F 20.5 °F 21.0 °F 78% 30.02 in 9.0 mi SSW 5.8 mph - N/A   Overcast
6:52 PM 27.0 °F 18.7 °F 21.0 °F 78% 30.04 in 9.0 mi SW 8.1 mph - N/A   Overcast
7:52 PM 27.0 °F 18.0 °F 21.0 °F 78% 30.05 in 9.0 mi South 9.2 mph - N/A   Scattered Clouds
8:52 PM 26.1 °F 20.5 °F 21.0 °F 81% 30.08 in 8.0 mi South 4.6 mph - N/A   Partly Cloudy
9:52 PM 25.0 °F 17.1 °F 19.0 °F 78% 30.10 in 9.0 mi SSE 6.9 mph - N/A   Scattered Clouds
10:52 PM 21.9 °F 15.7 °F 19.0 °F 89% 30.12 in 7.0 mi South 4.6 mph - N/A   Clear
11:52 PM 21.0 °F - 18.0 °F 88% 30.14 in 6.0 mi Calm Calm - N/A   Clear